ONEWEB-0090, 45427

Orbit data source: Space-Track

ONEWEB-0090, 45427 is a payload satellite owned by One Web (UK) in LEO that was launched on Sat, 21 Mar 2020 UTC via a SOYUZ-2-1B launch vehicle from the Tyuratam Missile And Space Complex (TTMTR). Payload-class satellites include a variety of spacecraft equipped with specific instruments for various scientific and technological missions. These include communications satellites like Starlink; space stations such as the ISS; scientific satellites like the Hubble; Earth observation satellites from companies like Planet Labs, Umbra, and HawkEye 360; GPS; miniature CubeSats for education and research; and military/defense satellites.

Loading next visibility...
Identifier
45427, 2020-020D
Orbit
LEO
Country
Flag of UKUK
Related business
Manufacturer
One Web
Mission
Operational Commercial Communications
Bus & Motor
ARROW, Unknown motor
Mass
148 kg wet, ~140 kg dry
Launch date (UTC)
2020-03-21 (6 years ago)
Launch vehicle
SOYUZ-2-1B
Launch site
Tyuratam Missile And Space Complex (TTMTR)
Object type
Payload
Rocket body
Debris
Shape & HBR
Trap Box + 2 Pan, 6.7 m
Radar Cross Section
3.464 m², Large (>1 m²)

Expand to show TLE details & history
Last TLE update: 11 hours ago

TLE from 11 hours ago
0 ONEWEB-0090
1 45427U 20020D   26254.73350413 -.00000195  00000-0 -58660-3 0  9996
2 45427  87.8976   3.8702 0001735  99.0838 261.0486 13.11418971314014
Epoch: 2026-09-11T17:36Z
TLE epoch observation values (Epoch: 2026-09-11T17:36:14.756Z)
Latitude
-0.00007°
Longitude
109.05609°
Altitude
1,220.769 km
Speed
7.244 km/s
True Right ascension
00h 15m 28s
True Declination
0° 00' 00"
Sunlit
Object was in full shadow at epoch
Visualization orbit readout
Latitude
Unknown
Longitude
Unknown
Altitude
Unknown
Speed
Unknown
Apparent Right ascension
Unknown
Apparent Declination
Unknown
Sunlit
N/A
Visualization observer readout
Local Sidereal Time
20:52:55
Azimuth
Unknown
Elevation
Unknown
Doppler factor
Unknown
Orbital elements
Apogee altitude
1,216.11 km
Perigee altitude
1,213.476 km
Semi-major axis
7,592.93 km
Eccentricity
0.00017
Inclination
87.8976°
RAAN
3.8702°
Arg. of periapsis
99.0838°
True anomaly
261.02896°
Mean anomaly
261.0486°
Eccentric anomaly
261.03878°
Mean motion
3.28042 °/min
Orbital period
109.74 mins
BSTAR
-0.0005866
Loading maneuver chart data...
Computing Atmospheric mass density...
Loading historical data...
Loading historical data...
Loading historical data...
Loading historical data...
Loading historical data...
Loading historical data...
Loading historical data...

Documentation

Showing up to 5 results
|